EW8633 Weather Reports


Display with metric or nautical units.
time (UTC)temp
F
wind
direction
speed
MPH
gust
MPH
rain 1hr
in
rain 24hr
in
rain mn
in
humidity
%
barometer
mb
20181216012257 48 240 0.0 0.0 0.00 0.65 0.26 33 1015.9
20181216011257 48 256 0.0 0.0 0.00 0.65 0.26 33 1015.7
20181216010757 48 256 0.0 0.0 0.00 0.66 0.26 33 1015.4
20181216005757 48 258 0.0 0.0 0.00 0.66 0.26 33 1015.3
20181216005257 48 279 0.0 1.0 0.00 0.66 0.26 33 1015.3
20181216004257 48 22 0.0 0.0 0.00 0.69 0.26 33 1015.3
20181216003757 48 182 0.0 3.0 0.00 0.69 0.26 33 1015.3
20181216002258 48 178 0.0 0.0 0.00 0.69 0.26 33 1015.1
20181216001757 48 178 0.0 0.0 0.00 0.69 0.26 33 1014.9
20181216001257 48 175 0.0 0.0 0.00 0.69 0.26 33 1015.0
20181215234757 49 198 1.0 6.0 0.00 0.69 0.26 32 1014.9
20181215234257 49 159 0.0 0.0 0.00 0.69 0.26 32 1014.8
20181215233757 49 159 0.0 0.0 0.00 0.69 0.26 32 1014.7
20181215233258 49 174 0.0 0.0 0.00 0.69 0.26 32 1014.6
20181215232757 49 119 0.0 0.0 0.00 0.69 0.26 32 1014.6
20181215232257 49 95 0.0 1.0 0.00 0.70 0.26 32 1014.5
20181215231757 49 204 0.0 3.0 0.00 0.70 0.26 32 1014.3
20181215231257 49 175 0.0 0.0 0.00 0.70 0.26 32 1014.1
20181215230757 49 129 0.0 0.0 0.00 0.70 0.26 32 1013.9
20181215230257 49 315 0.0 0.0 0.00 0.70 0.26 32 1013.7
20181215225757 49 344 0.0 0.0 0.00 0.70 0.26 32 1013.6
20181215225257 49 302 0.0 0.0 0.00 0.70 0.26 32 1013.5
20181215224757 49 222 0.0 0.0 0.00 0.70 0.26 32 1013.4
20181215224257 49 219 0.0 0.0 0.00 0.70 0.26 32 1013.3
20181215223757 49 219 0.0 0.0 0.00 0.71 0.26 32 1013.3
20181215223258 49 222 0.0 3.0 0.00 0.71 0.26 32 1013.2
20181215222757 49 304 0.0 0.0 0.00 0.71 0.26 32 1013.1
20181215222258 49 19 0.0 0.0 0.00 0.72 0.26 32 1013.1
20181215221757 49 291 0.0 0.0 0.00 0.72 0.26 32 1013.3
20181215220757 49 186 0.0 0.0 0.00 0.74 0.26 32 1013.0
20181215215757 49 223 0.0 5.0 0.00 0.74 0.26 32 1012.9
20181215213757 50 132 0.0 0.0 0.01 0.74 0.26 32 1012.5
20181215213258 50 263 2.0 5.0 0.01 0.74 0.26 32 1012.4
20181215212757 50 236 1.0 5.0 0.02 0.74 0.26 32 1012.4
20181215212257 50 335 0.0 0.0 0.02 0.74 0.26 32 1012.4
20181215211757 50 346 0.0 0.0 0.02 0.74 0.26 32 1012.3
20181215211257 50 348 0.0 0.0 0.03 0.74 0.26 32 1012.2
20181215210757 50 346 0.0 3.0 0.04 0.74 0.26 32 1012.1
20181215210257 50 221 0.0 0.0 0.04 0.74 0.26 32 1012.1
20181215205757 50 190 0.0 3.0 0.04 0.74 0.26 32 1012.1
20181215204757 50 190 0.0 3.0 0.05 0.74 0.26 32 1011.9
20181215203757 50 308 0.0 2.0 0.04 0.73 0.25 32 1011.7
20181215202757 50 197 0.0 0.0 0.03 0.72 0.24 32 1011.7
20181215202257 50 197 0.0 3.0 0.03 0.72 0.24 32 1011.6
20181215201757 50 197 0.0 5.0 0.03 0.72 0.24 32 1011.6
20181215201257 50 265 1.0 2.0 0.02 0.71 0.23 32 1011.6
20181215195757 50 301 2.0 3.0 0.01 0.70 0.22 32 1011.3
20181215195257 50 264 1.0 3.0 0.01 0.70 0.22 32 1011.2
20181215194758 50 284 1.0 7.0 0.00 0.69 0.21 32 1011.1
20181215194257 50 255 0.0 3.0 0.00 0.69 0.21 32 1011.0
20181215193758 50 254 0.0 3.0 0.00 0.69 0.21 32 1010.9
20181215193257 50 355 0.0 2.0 0.00 0.69 0.21 32 1010.9
20181215192758 50 237 0.0 0.0 0.00 0.69 0.21 32 1010.9
20181215191257 50 228 0.0 1.0 0.00 0.69 0.21 32 1011.0
20181215190757 50 211 1.0 5.0 0.00 0.69 0.21 32 1011.0
20181215190257 50 158 0.0 3.0 0.00 0.69 0.21 32 1010.9
20181215185757 50 257 0.0 0.0 0.00 0.69 0.21 32 1010.8
20181215184757 50 257 0.0 0.0 0.00 0.69 0.21 32 1010.7
20181215183258 50 320 0.0 0.0 0.00 0.69 0.21 32 1010.7
20181215182757 50 329 0.0 2.0 0.00 0.69 0.21 32 1010.6
20181215182258 50 355 0.0 0.0 0.00 0.69 0.21 32 1010.7
20181215181757 50 303 0.0 0.0 0.00 0.69 0.21 32 1010.6
20181215181258 50 238 0.0 3.0 0.00 0.69 0.21 32 1010.6
20181215180757 50 172 1.0 3.0 0.00 0.69 0.21 32 1010.4
20181215180258 50 237 0.0 0.0 0.00 0.69 0.21 32 1010.5
20181215175758 50 224 0.0 3.0 0.00 0.69 0.21 32 1010.5
20181215175257 50 189 0.0 1.0 0.00 0.69 0.21 32 1010.6
20181215174758 50 237 0.0 3.0 0.00 0.69 0.21 32 1010.5
20181215173758 51 231 0.0 7.0 0.00 0.69 0.21 32 1010.5
20181215173257 50 221 0.0 0.0 0.00 0.69 0.21 32 1010.5
20181215172758 50 265 0.0 5.0 0.01 0.69 0.21 32 1010.6
20181215172257 50 152 0.0 1.0 0.01 0.69 0.21 32 1010.6
20181215171758 50 152 0.0 0.0 0.01 0.69 0.21 32 1010.6
20181215171257 50 250 0.0 0.0 0.01 0.69 0.21 32 1010.6
20181215170757 50 250 0.0 1.0 0.01 0.69 0.21 32 1010.7
20181215170257 50 272 0.0 3.0 0.01 0.69 0.21 32 1010.6
20181215165757 50 202 0.0 0.0 0.01 0.69 0.21 32 1010.5
20181215165257 50 237 0.0 3.0 0.01 0.69 0.21 32 1010.5
20181215164758 50 252 0.0 5.0 0.01 0.69 0.21 32 1010.5
20181215164257 50 269 0.0 0.0 0.01 0.69 0.21 32 1010.5
20181215163758 50 269 0.0 9.0 0.01 0.69 0.21 32 1010.4
20181215162257 50 255 0.0 2.0 0.00 0.68 0.20 32 1010.4
20181215161758 50 270 0.0 0.0 0.00 0.68 0.20 32 1010.4
20181215161257 50 266 0.0 0.0 0.00 0.68 0.20 32 1010.4
20181215160758 50 266 0.0 0.0 0.00 0.68 0.20 32 1010.4
20181215155758 50 261 0.0 0.0 0.00 0.68 0.20 32 1010.3
20181215155257 50 273 0.0 0.0 0.00 0.68 0.20 32 1010.3
20181215154758 50 261 0.0 0.0 0.00 0.68 0.20 32 1010.3
20181215152758 50 276 0.0 0.0 0.00 0.68 0.20 32 1010.0
20181215152257 50 197 0.0 0.0 0.00 0.68 0.20 32 1010.0
20181215151257 49 195 0.0 0.0 0.00 0.68 0.20 32 1009.9
20181215150758 49 200 0.0 0.0 0.01 0.68 0.20 32 1009.8
20181215145757 49 292 1.0 2.0 0.01 0.68 0.20 32 1009.7
20181215145257 49 267 0.0 3.0 0.01 0.68 0.20 32 1009.6
20181215144758 49 267 1.0 2.0 0.01 0.68 0.20 32 1009.6
20181215144257 49 268 1.0 3.0 0.01 0.68 0.20 32 1009.5
20181215143758 49 188 0.0 0.0 0.01 0.68 0.20 32 1009.5
20181215142758 49 265 0.0 2.0 0.01 0.68 0.20 32 1009.3
20181215142257 49 222 0.0 1.0 0.01 0.68 0.20 32 1009.1
20181215141257 49 203 0.0 0.0 0.01 0.68 0.20 32 1009.0
20181215140758 49 203 0.0 0.0 0.00 0.67 0.19 32 1008.8
20181215140258 49 203 0.0 0.0 0.00 0.67 0.19 32 1008.8
20181215134757 49 203 0.0 0.0 0.00 0.67 0.19 32 1008.7
20181215134258 49 203 0.0 0.0 0.00 0.67 0.19 32 1008.5
20181215133757 49 203 0.0 0.0 0.00 0.67 0.19 32 1008.5
20181215133258 49 203 0.0 0.0 0.00 0.67 0.19 32 1008.4
20181215132757 49 203 0.0 0.0 0.00 0.67 0.19 32 1008.3
20181215131758 49 190 0.0 3.0 0.00 0.67 0.19 32 1008.2
20181215131258 49 194 0.0 0.0 0.00 0.67 0.19 32 1008.2
20181215130757 49 194 0.0 0.0 0.00 0.67 0.19 32 1008.0
20181215125757 49 191 0.0 0.0 0.00 0.67 0.19 32 1007.8
20181215124258 49 258 0.0 0.0 0.01 0.67 0.19 32 1007.7
20181215123757 49 258 0.0 0.0 0.01 0.67 0.19 32 1007.6
20181215123258 49 258 0.0 0.0 0.01 0.67 0.19 32 1007.6
20181215122757 49 258 0.0 0.0 0.01 0.67 0.19 32 1007.5
20181215122258 49 258 0.0 0.0 0.01 0.67 0.19 32 1007.4
20181215121758 49 258 0.0 0.0 0.01 0.67 0.19 32 1007.3
20181215120758 49 258 0.0 2.0 0.01 0.67 0.19 32 1007.3
20181215115757 49 209 0.0 0.0 0.01 0.67 0.19 32 1007.3
20181215114758 49 226 0.0 0.0 0.00 0.66 0.18 32 1007.2
20181215114258 50 226 0.0 3.0 0.01 0.66 0.18 32 1007.2
20181215113757 50 217 0.0 0.0 0.01 0.66 0.18 32 1007.1
20181215113259 50 200 0.0 0.0 0.01 0.66 0.18 32 1007.0
20181215112757 50 196 0.0 1.0 0.01 0.66 0.18 32 1006.9
20181215112258 50 212 0.0 0.0 0.01 0.66 0.18 32 1006.9
20181215111758 50 215 0.0 2.0 0.01 0.66 0.18 32 1006.8
20181215110758 50 270 0.0 2.0 0.01 0.66 0.18 32 1006.7
20181215110257 50 259 0.0 0.0 0.01 0.66 0.18 32 1006.5
20181215105758 51 261 0.0 0.0 0.01 0.66 0.18 32 1006.5
20181215105258 51 253 0.0 0.0 0.01 0.66 0.18 32 1006.5
20181215103757 51 254 0.0 0.0 0.00 0.65 0.17 32 1006.4
20181215103258 51 202 0.0 2.0 0.00 0.65 0.17 32 1006.3
20181215102758 51 172 0.0 0.0 0.00 0.65 0.17 32 1006.3
20181215102258 51 171 0.0 0.0 0.00 0.65 0.17 32 1006.2
20181215101257 51 147 0.0 0.0 0.00 0.65 0.17 32 1006.2
20181215100758 51 147 0.0 0.0 0.00 0.65 0.17 32 1006.2
20181215094758 51 175 0.0 0.0 0.00 0.65 0.17 32 1006.0
20181215094258 51 175 0.0 1.0 0.00 0.65 0.17 32 1006.0
20181215093758 51 175 0.0 0.0 0.00 0.65 0.17 32 1006.1
20181215093258 51 175 0.0 0.0 0.00 0.65 0.17 32 1006.0
20181215092258 51 175 0.0 0.0 0.00 0.65 0.17 32 1005.9
20181215091758 51 175 0.0 0.0 0.00 0.65 0.17 32 1005.9
20181215091258 51 175 0.0 0.0 0.00 0.65 0.17 32 1006.0
20181215090757 51 179 0.0 0.0 0.00 0.65 0.17 32 1006.0
20181215090258 51 187 0.0 0.0 0.00 0.65 0.17 32 1006.0
20181215085258 51 187 0.0 0.0 0.00 0.65 0.17 32 1005.9
20181215084758 51 187 0.0 0.0 0.00 0.65 0.17 32 1005.9
20181215084257 51 187 0.0 0.0 0.00 0.65 0.17 32 1005.9
20181215083258 51 187 0.0 0.0 0.00 0.65 0.17 32 1006.0
20181215082757 51 187 0.0 0.0 0.00 0.65 0.17 32 1006.0
20181215082258 51 187 0.0 0.0 0.00 0.65 0.17 32 1006.0
20181215081258 51 325 0.0 0.0 0.00 0.65 0.17 32 1006.1
20181215080758 51 325 0.0 0.0 0.00 0.65 0.17 32 1006.1
20181215080258 51 325 0.0 0.0 0.00 0.65 0.17 32 1006.1
20181215075758 51 260 0.0 0.0 0.00 0.65 0.17 32 1006.1
20181215075258 51 5 0.0 2.0 0.01 0.65 0.17 32 1006.1
20181215074258 51 19 0.0 0.0 0.02 0.65 0.17 32 1006.1
20181215073258 51 282 0.0 3.0 0.04 0.65 0.17 32 1005.9
20181215072758 51 165 0.0 1.0 0.05 0.65 0.17 32 1005.8
20181215072258 51 165 0.0 1.0 0.07 0.65 0.17 32 1005.9
20181215071258 51 144 0.0 1.0 0.11 0.65 0.17 32 1006.0
20181215070758 51 144 0.0 1.0 0.13 0.65 0.17 32 1005.9
20181215064258 51 191 0.0 3.0 0.26 0.63 0.15 32 1005.8
20181215063758 51 103 0.0 0.0 0.28 0.62 0.14 32 1006.5
20181215063258 51 103 0.0 3.0 0.31 0.61 0.13 32 1006.1
20181215062258 51 340 2.0 3.0 0.36 0.58 0.10 32 1005.6
20181215061758 51 223 1.0 3.0 0.38 0.56 0.08 32 1006.1
20181215061259 51 15 0.0 3.0 0.39 0.54 0.06 32 1006.5
20181215055758 51 27 0.0 0.0 0.33 0.47 0.47 32 1006.5
20181215055258 51 27 0.0 0.0 0.31 0.45 0.45 32 1006.6
20181215054758 52 27 0.0 0.0 0.29 0.43 0.43 32 1006.6
20181215054258 52 27 0.0 0.0 0.24 0.39 0.38 32 1006.8
20181215053758 52 27 0.0 0.0 0.20 0.35 0.34 32 1006.9
20181215053258 52 27 0.0 0.0 0.17 0.32 0.31 32 1007.2
20181215052758 52 27 0.0 0.0 0.13 0.28 0.27 32 1007.2
20181215052258 52 28 0.0 0.0 0.08 0.23 0.22 32 1007.5
20181215050258 52 358 0.0 0.0 0.01 0.16 0.15 32 1006.6
20181215045758 52 351 0.0 0.0 0.00 0.16 0.14 32 1006.5
20181215045258 52 41 0.0 0.0 0.00 0.16 0.14 32 1006.4
20181215044258 52 25 0.0 0.0 0.00 0.18 0.14 32 1006.1
20181215043758 52 21 0.0 0.0 0.00 0.19 0.14 32 1006.3
20181215042758 52 29 0.0 0.0 0.01 0.21 0.14 32 1006.2
20181215041758 52 14 0.0 0.0 0.01 0.23 0.14 32 1006.1
20181215041258 52 72 0.0 3.0 0.02 0.24 0.14 32 1006.2
20181215040259 52 38 0.0 3.0 0.03 0.25 0.14 32 1005.7
20181215035758 52 30 0.0 0.0 0.04 0.25 0.14 32 1005.5
20181215035258 52 23 0.0 2.0 0.04 0.26 0.14 32 1005.9
20181215034758 52 300 0.0 1.0 0.04 0.26 0.14 32 1006.3
20181215033758 52 61 0.0 2.0 0.05 0.27 0.14 32 1006.3
20181215033258 52 53 0.0 0.0 0.05 0.28 0.14 32 1006.2
20181215032758 52 56 0.0 3.0 0.04 0.28 0.13 32 1006.2
20181215032258 52 36 0.0 3.0 0.04 0.29 0.13 32 1006.2
20181215031758 52 36 1.0 3.0 0.04 0.30 0.13 32 1006.0
20181215031258 52 11 1.0 10.0 0.03 0.30 0.12 32 1006.3
20181215030258 52 12 0.0 3.0 0.02 0.32 0.11 32 1006.8
20181215025258 52 305 0.0 2.0 0.01 0.32 0.10 32 1007.0
20181215024758 52 71 0.0 2.0 0.01 0.34 0.10 32 1007.1
20181215024258 52 77 0.0 3.0 0.01 0.35 0.10 32 1006.9
20181215023759 52 65 1.0 3.0 0.00 0.35 0.09 32 1006.9
20181215022258 52 16 2.0 3.0 0.00 0.39 0.09 32 1007.0
20181215021759 52 350 1.0 3.0 0.00 0.40 0.09 32 1007.0
20181215021258 52 11 0.0 3.0 0.00 0.41 0.09 32 1007.0
20181215020758 52 92 0.0 2.0 0.01 0.42 0.09 32 1007.0
20181215015759 52 4 0.0 2.0 0.01 0.43 0.09 32 1006.9
20181215015258 52 34 0.0 2.0 0.01 0.43 0.09 32 1006.7
20181215014758 52 36 0.0 3.0 0.02 0.43 0.09 32 1006.7
20181215014259 52 338 1.0 5.0 0.04 0.43 0.09 32 1006.9
20181215013258 52 3 0.0 3.0 0.04 0.43 0.09 32 1007.1
20181215012758 52 34 0.0 2.0 0.04 0.43 0.09 32 1007.2